Погода в Бизине

Россия / Тюменская область     58°08′28″N   68°16′13″E
темп.,
°C
ветер,
м/с
пор.,
м/с
влажн.,
%
обл.,
%
осадки,
мм/ч
давл.,
гПа
погр.,
м
21 июня, пн
пн2123:00+8с51095100 2.3 1005614
02:00+8ссз51297100 0.1 1006716
05:00+10ссв71496100 0.6 1009925
08:00+12с81387100 0.0 1013773
11:00+14с8107192 0.1 1016950
14:00+16с686393 0.3 10171329
17:00+17с584799 0.4 10181995
20:00+13ссз2563100 0.0 1018126
22 июня, вт
вт2223:00+12с3468100 0.0 101896
02:00+8с228241 0.0 101823
05:00+9ссз228232 0.0 101839
08:00+13ссз226396 0.0 1018471
11:00+17сз124781 0.0 10171584
14:00+17св1242100 0.0 10161665
17:00+14зюз0170100 0.3 101613
20:00+12св358198 0.3 1017104
23 июня, ср
ср2323:00+10всв379282 0.5 1017183
02:00+7ссв35941 0.0 101885
05:00+7с379337 0.0 1020176
08:00+12ссв57645 0.0 1020655
11:00+16ссв5745100 0.0 10212149
14:00+15с5751100 0.0 10211574
17:00+16с5742100 0.1 10211914
20:00+13св245995 0.0 102299
24 июня, чт
чт2423:00+8св22725 0.0 102211
02:00+7зсз22715 0.0 102211
05:00+8зсз35715 0.0 102295
08:00+15сз35495 0.0 1021573
11:00+19ссз463511 0.0 10192268
14:00+21ссз453089 0.0 10182545
17:00+21сз343189 0.0 10172405
20:00+18ююз1155100 0.0 101611
25 июня, пт
пт2523:00+15ююз345696 0.0 101464
02:00+15ююз3656100 0.0 1013134
05:00+13ююв4871100 0.1 1011197
08:00+11ю71393100 3.1 1008361
11:00+12ю61196100 7.1 1005421
14:00+12вюв3596100 9.8 1005292
17:00+13всв4693100 9.8 1006646
20:00+13всв5993100 0.0 1008767